Change the Weather History Date:

Wednesday, May 29, 2013

  Actual Average (KRDU) Record (KRDU)
Temperature  
Mean Temperature 73 °F 72 °F  
Max Temperature 82 °F 83 °F 98 °F (1941)
Min Temperature 64 °F 61 °F 47 °F (1968)
Degree Days  
Heating Degree Days 0 1  
Month to date heating degree days 53  
Since 1 July heating degree days 3242  
Cooling Degree Days 8 7  
Month to date cooling degree days 133  
Year to date cooling degree days 194  
Growing Degree Days 23 (Base 50)    
Moisture  
Dew Point 62 °F    
Average Humidity 68    
Maximum Humidity 100    
Minimum Humidity 45    
Precipitation  
Precipitation 0.00 in 0.12 in 2.46 in (1984)
Month to date precipitation 3.02  
Year to date precipitation 16.78  
Sea Level Pressure  
Sea Level Pressure 30.22 in    
Wind  
Wind Speed 4 mph (SSW)    
Max Wind Speed 12 mph    
Max Gust Speed 17 mph    
Visibility 10 miles    
Events      
T = Trace of Precipitation, MM = Missing Value Source: NWS Daily Summary

Daily Weather History Graph

Daily Weather History Graph

Search for Another Location

Airport or City:

Trip Planner

Search our weather history database for the weather conditions in past years. The results will help you decide how hot, cold, wet, or windy it might be!

Date:

Astronomy

May. 29, 2013 Rise Set
Actual Time 5:58 AM EDT 8:22 PM EDT
Civil Twilight 5:29 AM EDT 8:52 PM EDT
Nautical Twilight 4:52 AM EDT 9:29 PM EDT
Astronomical Twilight 4:13 AM EDT 10:09 PM EDT
Moon No Moon Rise 10:51 AM EDT (5/29)
Length of Visible Light 15h 23m
Length of Day
14h 24m
Waning Gibbous, 73% of the Moon is Illuminated
May 29
Waning Gibbous
May 31
Last Quarter
Jun 8
New
Jun 16
First Quarter
Jun 23
Full

Hourly Weather History & Observations

Time (EDT) Temp. Heat Index Dew Point Humidity Pressure Visibility Wind Dir Wind Speed Gust Speed Precip Events Conditions
12:15 AM 69.8 °F - 60.8 °F 73% 30.20 in 10.0 mi South 4.6 mph - N/A   Clear
12:35 AM 68.0 °F - 60.8 °F 78% 30.21 in 10.0 mi SSW 4.6 mph - N/A   Clear
12:55 AM 68.0 °F - 60.8 °F 78% 30.20 in 10.0 mi South 4.6 mph - N/A   Clear
1:15 AM 68.0 °F - 60.8 °F 78% 30.21 in 10.0 mi SSW 4.6 mph - N/A   Clear
1:35 AM 66.2 °F - 60.8 °F 83% 30.20 in 10.0 mi South 3.5 mph - N/A   Clear
1:55 AM 66.2 °F - 60.8 °F 83% 30.20 in 10.0 mi SSW 4.6 mph - N/A   Clear
2:15 AM 66.2 °F - 60.8 °F 83% 30.20 in 10.0 mi South 5.8 mph - N/A   Clear
2:35 AM 66.2 °F - 60.8 °F 83% 30.20 in 10.0 mi SSW 5.8 mph - N/A   Clear
2:55 AM 64.4 °F - 60.8 °F 88% 30.20 in 10.0 mi South 4.6 mph - N/A   Clear
3:15 AM 64.4 °F - 62.6 °F 94% 30.20 in 10.0 mi South 3.5 mph - N/A   Clear
3:35 AM 64.4 °F - 62.6 °F 94% 30.20 in 10.0 mi Calm Calm - N/A   Clear
3:55 AM 64.4 °F - 64.4 °F 100% 30.21 in 10.0 mi Calm Calm - N/A   Clear
4:15 AM 64.4 °F - 64.4 °F 100% 30.22 in 10.0 mi Calm Calm - N/A   Clear
4:35 AM - - - N/A% 30.22 in 10.0 mi Calm Calm - N/A   Clear
4:55 AM - - - N/A% 30.22 in 10.0 mi South 3.5 mph - N/A   Clear
5:15 AM - - - N/A% 30.23 in 10.0 mi South 3.5 mph - N/A   Clear
5:35 AM - - - N/A% 30.23 in 10.0 mi Calm Calm - N/A   Clear
5:55 AM - - - N/A% 30.23 in 10.0 mi SSW 3.5 mph - N/A   Clear
6:15 AM - - - N/A% 30.23 in 10.0 mi South 3.5 mph - N/A   Clear
6:35 AM - - - N/A% 30.23 in 10.0 mi Calm Calm - N/A   Clear
6:55 AM - - - N/A% 30.23 in 10.0 mi SSW 3.5 mph - N/A   Clear
7:15 AM - - - N/A% 30.24 in 10.0 mi SSW 3.5 mph - N/A   Clear
7:35 AM - - - N/A% 30.24 in 10.0 mi SSW 3.5 mph - N/A   Clear
7:55 AM 68.0 °F - 68.0 °F 100% 30.25 in 10.0 mi SW 3.5 mph - N/A   Clear
8:15 AM 69.8 °F - 69.8 °F 100% 30.25 in 10.0 mi Calm Calm - N/A   Clear
8:35 AM 69.8 °F - 69.8 °F 100% 30.25 in 10.0 mi SW 5.8 mph - N/A   Clear
8:55 AM 71.6 °F - 68.0 °F 88% 30.26 in 10.0 mi SW 6.9 mph - N/A   Clear
9:15 AM 73.4 °F - 64.4 °F 73% 30.26 in 10.0 mi SW 3.5 mph - N/A   Clear
9:35 AM 73.4 °F - 62.6 °F 69% 30.26 in 10.0 mi SW 6.9 mph - N/A   Clear
9:55 AM 75.2 °F - 62.6 °F 65% 30.26 in 10.0 mi SSW 5.8 mph - N/A   Clear
10:15 AM 77.0 °F - 62.6 °F 61% 30.26 in 10.0 mi WSW 4.6 mph - N/A   Clear
10:35 AM 77.0 °F - 60.8 °F 57% 30.25 in 10.0 mi WSW 5.8 mph - N/A   Clear
10:55 AM 78.8 °F - 60.8 °F 54% 30.26 in 10.0 mi SW 6.9 mph - N/A   Clear
11:15 AM 78.8 °F - 60.8 °F 54% 30.26 in 10.0 mi SSW 8.1 mph - N/A   Clear
11:35 AM 78.8 °F - 62.6 °F 57% 30.26 in 10.0 mi South 6.9 mph - N/A   Clear
11:55 AM 78.8 °F - 62.6 °F 57% 30.25 in 10.0 mi South 8.1 mph - N/A   Clear
12:15 PM 80.6 °F 81.5 °F 60.8 °F 51% 30.25 in 10.0 mi South 8.1 mph - N/A   Clear
12:35 PM 80.6 °F 81.5 °F 60.8 °F 51% 30.26 in 10.0 mi South 8.1 mph - N/A   Clear
12:55 PM 80.6 °F 81.1 °F 59.0 °F 48% 30.25 in 10.0 mi SSW 5.8 mph - N/A   Clear
1:15 PM 80.6 °F 81.5 °F 60.8 °F 51% 30.25 in 10.0 mi WSW 4.6 mph - N/A   Clear
1:35 PM 82.4 °F 82.9 °F 60.8 °F 48% 30.24 in 10.0 mi South 8.1 mph - N/A   Clear
1:55 PM 82.4 °F 82.9 °F 60.8 °F 48% 30.23 in 10.0 mi SSW 8.1 mph - N/A   Clear
2:15 PM 82.4 °F 82.9 °F 60.8 °F 48% 30.22 in 10.0 mi South 6.9 mph 16.1 mph N/A   Clear
2:35 PM 82.4 °F 82.9 °F 60.8 °F 48% 30.22 in 10.0 mi South 11.5 mph 16.1 mph N/A   Scattered Clouds
2:55 PM 82.4 °F 82.9 °F 60.8 °F 48% 30.22 in 10.0 mi South 9.2 mph - N/A   Scattered Clouds
3:15 PM 82.4 °F 82.9 °F 60.8 °F 48% 30.21 in 10.0 mi South 9.2 mph - N/A   Scattered Clouds
3:35 PM 82.4 °F 82.9 °F 60.8 °F 48% 30.21 in 10.0 mi SSW 9.2 mph 17.3 mph N/A   Clear
3:55 PM 82.4 °F 82.9 °F 60.8 °F 48% 30.21 in 10.0 mi South 8.1 mph - N/A   Scattered Clouds
4:15 PM 82.4 °F 82.9 °F 60.8 °F 48% 30.21 in 10.0 mi SSW 8.1 mph - N/A   Scattered Clouds
4:35 PM 82.4 °F 82.9 °F 60.8 °F 48% 30.20 in 10.0 mi South 6.9 mph - N/A   Clear
4:55 PM 82.4 °F 82.9 °F 60.8 °F 48% 30.20 in 10.0 mi South 10.4 mph - N/A   Scattered Clouds
5:15 PM 82.4 °F 82.5 °F 59.0 °F 45% 30.20 in 10.0 mi SSW 5.8 mph - N/A   Scattered Clouds
5:35 PM 82.4 °F 82.9 °F 60.8 °F 48% 30.20 in 10.0 mi SSW 4.6 mph - N/A   Clear
5:55 PM 82.4 °F 82.9 °F 60.8 °F 48% 30.20 in 10.0 mi SSW 4.6 mph - N/A   Clear
6:15 PM 82.4 °F 82.5 °F 59.0 °F 45% 30.20 in 10.0 mi South 6.9 mph - N/A   Clear
6:35 PM 82.4 °F 82.9 °F 60.8 °F 48% 30.20 in 10.0 mi South 6.9 mph - N/A   Clear
6:55 PM 80.6 °F 81.5 °F 60.8 °F 51% 30.20 in 10.0 mi South 5.8 mph - N/A   Clear
7:15 PM 80.6 °F 81.5 °F 60.8 °F 51% 30.19 in 10.0 mi South 6.9 mph - N/A   Clear
7:55 PM 77.0 °F - 62.6 °F 61% 30.19 in 10.0 mi Calm Calm - N/A   Clear
8:15 PM 73.4 °F - 64.4 °F 73% 30.19 in 10.0 mi Calm Calm - N/A   Clear
8:35 PM 71.6 °F - 62.6 °F 73% 30.19 in 10.0 mi Calm Calm - N/A   Clear
8:55 PM 69.8 °F - 62.6 °F 78% 30.19 in 10.0 mi Calm Calm - N/A   Clear
9:15 PM 69.8 °F - 62.6 °F 78% 30.19 in 10.0 mi Calm Calm - N/A   Clear
9:35 PM 68.0 °F - 62.6 °F 83% 30.20 in 10.0 mi Calm Calm - N/A   Clear
9:55 PM 68.0 °F - 64.4 °F 88% 30.20 in 10.0 mi Calm Calm - N/A   Clear
10:15 PM 68.0 °F - 64.4 °F 88% 30.21 in 10.0 mi Calm Calm - N/A   Clear
10:35 PM 68.0 °F - 64.4 °F 88% 30.22 in 10.0 mi Calm Calm - N/A   Clear
10:55 PM 69.8 °F - 64.4 °F 83% 30.23 in 10.0 mi South 3.5 mph - N/A   Clear
11:15 PM 69.8 °F - 64.4 °F 83% 30.23 in 10.0 mi Calm Calm - N/A   Clear
11:35 PM 68.0 °F - 64.4 °F 88% 30.24 in 10.0 mi Calm Calm - N/A   Clear
11:55 PM 68.0 °F - 64.4 °F 88% 30.24 in 10.0 mi SSW 3.5 mph - N/A   Clear